Year,Month,Day,Hour,Minute,Value (Times are PST for temperature in C)
2015,07,19,00,00,22.60
2015,07,19,00,01,22.60
2015,07,19,00,02,22.60
2015,07,19,00,03,22.60
2015,07,19,00,04,22.60
2015,07,19,00,05,22.60
2015,07,19,00,06,22.50
2015,07,19,00,07,22.50
2015,07,19,00,08,22.40
2015,07,19,00,09,22.40
2015,07,19,00,10,22.40
2015,07,19,00,11,22.40
2015,07,19,00,12,22.30
2015,07,19,00,13,22.30
2015,07,19,00,14,22.30
2015,07,19,00,15,22.30
2015,07,19,00,16,22.20
2015,07,19,00,17,22.10
2015,07,19,00,18,22.10
2015,07,19,00,19,22.00
2015,07,19,00,20,22.00
2015,07,19,00,21,21.90
2015,07,19,00,22,21.90
2015,07,19,00,23,21.80
2015,07,19,00,24,21.80
2015,07,19,00,25,21.70
2015,07,19,00,26,21.60
2015,07,19,00,27,21.60
2015,07,19,00,28,21.50
2015,07,19,00,29,21.50
2015,07,19,00,30,21.40
2015,07,19,00,31,21.40
2015,07,19,00,32,21.40
2015,07,19,00,33,21.40
2015,07,19,00,34,21.50
2015,07,19,00,35,21.50
2015,07,19,00,36,21.60
2015,07,19,00,37,21.60
2015,07,19,00,38,21.70
2015,07,19,00,39,21.70
2015,07,19,00,40,21.70
2015,07,19,00,41,21.70
2015,07,19,00,42,21.70
2015,07,19,00,43,21.80
2015,07,19,00,44,21.80
2015,07,19,00,45,21.80
2015,07,19,00,46,21.80
2015,07,19,00,47,21.80
2015,07,19,00,48,21.80
2015,07,19,00,49,21.80
2015,07,19,00,50,21.80
2015,07,19,00,51,21.80
2015,07,19,00,52,21.80
2015,07,19,00,53,21.80
2015,07,19,00,54,21.80
2015,07,19,00,55,21.80
2015,07,19,00,56,21.80
2015,07,19,00,57,21.80
2015,07,19,00,58,21.80
2015,07,19,00,59,21.70
2015,07,19,01,00,21.70
2015,07,19,01,01,21.70
2015,07,19,01,02,21.60
2015,07,19,01,03,21.60
2015,07,19,01,04,21.50
2015,07,19,01,05,21.50
2015,07,19,01,06,21.40
2015,07,19,01,07,21.40
2015,07,19,01,08,21.40
2015,07,19,01,09,21.40
2015,07,19,01,10,21.40
2015,07,19,01,11,21.40
2015,07,19,01,12,21.50
2015,07,19,01,13,21.50
2015,07,19,01,14,21.60
2015,07,19,01,15,21.60
2015,07,19,01,16,21.60
2015,07,19,01,17,21.60
2015,07,19,01,18,21.60
2015,07,19,01,19,21.60
2015,07,19,01,20,21.60
2015,07,19,01,21,21.70
2015,07,19,01,22,21.70
2015,07,19,01,23,21.60
2015,07,19,01,24,21.50
2015,07,19,01,25,21.40
2015,07,19,01,26,21.30
2015,07,19,01,27,21.20
2015,07,19,01,28,21.00
2015,07,19,01,29,20.90
2015,07,19,01,30,20.80
2015,07,19,01,31,20.70
2015,07,19,01,32,20.60
2015,07,19,01,33,20.60
2015,07,19,01,34,20.50
2015,07,19,01,35,20.40
2015,07,19,01,36,20.40
2015,07,19,01,37,20.30
2015,07,19,01,38,20.30
2015,07,19,01,39,20.20
2015,07,19,01,40,20.10
2015,07,19,01,41,20.10
2015,07,19,01,42,20.00
2015,07,19,01,43,20.00
2015,07,19,01,44,19.90
2015,07,19,01,45,19.90
2015,07,19,01,46,19.90
2015,07,19,01,47,19.80
2015,07,19,01,48,19.80
2015,07,19,01,49,19.80
2015,07,19,01,50,19.80
2015,07,19,01,51,19.70
2015,07,19,01,52,19.70
2015,07,19,01,53,19.70
2015,07,19,01,54,19.70
2015,07,19,01,55,19.70
2015,07,19,01,56,19.60
2015,07,19,01,57,19.60
2015,07,19,01,58,19.60
2015,07,19,01,59,19.60
2015,07,19,02,00,19.50
2015,07,19,02,01,19.50
2015,07,19,02,02,19.40
2015,07,19,02,03,19.40
2015,07,19,02,04,19.40
2015,07,19,02,05,19.40
2015,07,19,02,06,19.30
2015,07,19,02,07,19.30
2015,07,19,02,08,19.30
2015,07,19,02,09,19.30
2015,07,19,02,10,19.30
2015,07,19,02,11,19.30
2015,07,19,02,12,19.20
2015,07,19,02,13,19.20
2015,07,19,02,14,19.20
2015,07,19,02,15,19.20
2015,07,19,02,16,19.10
2015,07,19,02,17,19.10
2015,07,19,02,18,19.10
2015,07,19,02,19,19.10
2015,07,19,02,20,19.10
2015,07,19,02,21,19.00
2015,07,19,02,22,19.00
2015,07,19,02,23,18.90
2015,07,19,02,24,18.90
2015,07,19,02,25,18.90
2015,07,19,02,26,18.80
2015,07,19,02,27,18.80
2015,07,19,02,28,18.80
2015,07,19,02,29,18.80
2015,07,19,02,30,18.70
2015,07,19,02,31,18.70
2015,07,19,02,32,18.70
2015,07,19,02,33,18.70
2015,07,19,02,34,18.70
2015,07,19,02,35,18.60
2015,07,19,02,36,18.60
2015,07,19,02,37,18.60
2015,07,19,02,38,18.60
2015,07,19,02,39,18.60
2015,07,19,02,40,18.60
2015,07,19,02,41,18.60
2015,07,19,02,42,18.60
2015,07,19,02,43,18.60
2015,07,19,02,44,18.60
2015,07,19,02,45,18.60
2015,07,19,02,46,18.60
2015,07,19,02,47,18.60
2015,07,19,02,48,18.50
2015,07,19,02,49,18.50
2015,07,19,02,50,18.50
2015,07,19,02,51,18.40
2015,07,19,02,52,18.40
2015,07,19,02,53,18.40
2015,07,19,02,54,18.40
2015,07,19,02,55,18.30
2015,07,19,02,56,18.30
2015,07,19,02,57,18.30
2015,07,19,02,58,18.30
2015,07,19,02,59,18.30
2015,07,19,03,00,18.30
2015,07,19,03,01,18.20
2015,07,19,03,02,18.20
2015,07,19,03,03,18.20
2015,07,19,03,04,18.20
2015,07,19,03,05,18.20
2015,07,19,03,06,18.10
2015,07,19,03,07,18.10
2015,07,19,03,08,18.10
2015,07,19,03,09,18.10
2015,07,19,03,10,18.10
2015,07,19,03,11,18.00
2015,07,19,03,12,18.00
2015,07,19,03,13,18.00
2015,07,19,03,14,18.00
2015,07,19,03,15,17.90
2015,07,19,03,16,17.90
2015,07,19,03,17,17.90
2015,07,19,03,18,17.90
2015,07,19,03,19,17.90
2015,07,19,03,20,17.90
2015,07,19,03,21,17.90
2015,07,19,03,22,17.90
2015,07,19,03,23,17.90
2015,07,19,03,24,17.90
2015,07,19,03,25,17.90
2015,07,19,03,26,17.90
2015,07,19,03,27,17.90
2015,07,19,03,28,17.90
2015,07,19,03,29,17.90
2015,07,19,03,30,17.90
2015,07,19,03,31,17.90
2015,07,19,03,32,18.00
2015,07,19,03,33,18.00
2015,07,19,03,34,18.10
2015,07,19,03,35,18.10
2015,07,19,03,36,18.10
2015,07,19,03,37,18.20
2015,07,19,03,38,18.20
2015,07,19,03,39,18.20
2015,07,19,03,40,18.20
2015,07,19,03,41,18.20
2015,07,19,03,42,18.20
2015,07,19,03,43,18.20
2015,07,19,03,44,18.20
2015,07,19,03,45,18.20
2015,07,19,03,46,18.20
2015,07,19,03,47,18.20
2015,07,19,03,48,18.10
2015,07,19,03,49,18.10
2015,07,19,03,50,18.10
2015,07,19,03,51,18.10
2015,07,19,03,52,18.00
2015,07,19,03,53,18.00
2015,07,19,03,54,17.90
2015,07,19,03,55,17.90
2015,07,19,03,56,17.90
2015,07,19,03,57,17.80
2015,07,19,03,58,17.80
2015,07,19,03,59,17.70
2015,07,19,04,00,17.70
2015,07,19,04,01,17.70
2015,07,19,04,02,17.60
2015,07,19,04,03,17.60
2015,07,19,04,04,17.60
2015,07,19,04,05,17.50
2015,07,19,04,06,17.50
2015,07,19,04,07,17.40
2015,07,19,04,08,17.40
2015,07,19,04,09,17.40
2015,07,19,04,10,17.30
2015,07,19,04,11,17.30
2015,07,19,04,12,17.30
2015,07,19,04,13,17.30
2015,07,19,04,14,17.20
2015,07,19,04,15,17.20
2015,07,19,04,16,17.20
2015,07,19,04,17,17.20
2015,07,19,04,18,17.20
2015,07,19,04,19,17.20
2015,07,19,04,20,17.20
2015,07,19,04,21,17.10
2015,07,19,04,22,17.10
2015,07,19,04,23,17.10
2015,07,19,04,24,17.10
2015,07,19,04,25,17.10
2015,07,19,04,26,17.10
2015,07,19,04,27,17.10
2015,07,19,04,28,17.00
2015,07,19,04,29,17.00
2015,07,19,04,30,17.00
2015,07,19,04,31,17.00
2015,07,19,04,32,17.00
2015,07,19,04,33,17.00
2015,07,19,04,34,17.00
2015,07,19,04,35,17.00
2015,07,19,04,36,17.00
2015,07,19,04,37,17.00
2015,07,19,04,38,17.00
2015,07,19,04,39,17.00
2015,07,19,04,40,17.00
2015,07,19,04,41,17.10
2015,07,19,04,42,17.10
2015,07,19,04,43,17.10
2015,07,19,04,44,17.10
2015,07,19,04,45,17.10
2015,07,19,04,46,17.10
2015,07,19,04,47,17.10
2015,07,19,04,48,17.10
2015,07,19,04,49,17.10
2015,07,19,04,50,17.10
2015,07,19,04,51,17.10
2015,07,19,04,52,17.20
2015,07,19,04,53,17.20
2015,07,19,04,54,17.20
2015,07,19,04,55,17.20
2015,07,19,04,56,17.30
2015,07,19,04,57,17.30
2015,07,19,04,58,17.30
2015,07,19,04,59,17.40
2015,07,19,05,00,17.40
2015,07,19,05,01,17.50
2015,07,19,05,02,17.50
2015,07,19,05,03,17.60
2015,07,19,05,04,17.60
2015,07,19,05,05,17.60
2015,07,19,05,06,17.60
2015,07,19,05,07,17.60
2015,07,19,05,08,17.60
2015,07,19,05,09,17.60
2015,07,19,05,10,17.60
2015,07,19,05,11,17.50
2015,07,19,05,12,17.50
2015,07,19,05,13,17.40
2015,07,19,05,14,17.40
2015,07,19,05,15,17.40
2015,07,19,05,16,17.40
2015,07,19,05,17,17.30
2015,07,19,05,18,17.30
2015,07,19,05,19,17.30
2015,07,19,05,20,17.30
2015,07,19,05,21,17.30
2015,07,19,05,22,17.30
2015,07,19,05,23,17.30
2015,07,19,05,24,17.30
2015,07,19,05,25,17.30
2015,07,19,05,26,17.30
2015,07,19,05,27,17.30
2015,07,19,05,28,17.30
2015,07,19,05,29,17.30
2015,07,19,05,30,17.20
2015,07,19,05,31,17.20
2015,07,19,05,32,17.20
2015,07,19,05,33,17.20
2015,07,19,05,34,17.30
2015,07,19,05,35,17.30
2015,07,19,05,36,17.40
2015,07,19,05,37,17.50
2015,07,19,05,38,17.60
2015,07,19,05,39,17.60
2015,07,19,05,40,17.80
2015,07,19,05,41,17.80
2015,07,19,05,42,17.90
2015,07,19,05,43,18.00
2015,07,19,05,44,18.10
2015,07,19,05,45,18.20
2015,07,19,05,46,18.30
2015,07,19,05,47,18.40
2015,07,19,05,48,18.40
2015,07,19,05,49,18.50
2015,07,19,05,50,18.60
2015,07,19,05,51,18.60
2015,07,19,05,52,18.70
2015,07,19,05,53,18.70
2015,07,19,05,54,18.80
2015,07,19,05,55,18.80
2015,07,19,05,56,18.80
2015,07,19,05,57,18.80
2015,07,19,05,58,18.80
2015,07,19,05,59,18.80
2015,07,19,06,00,18.80
2015,07,19,06,01,18.80
2015,07,19,06,02,18.80
2015,07,19,06,03,18.80
2015,07,19,06,04,18.80
2015,07,19,06,05,18.90
2015,07,19,06,06,18.90
2015,07,19,06,07,18.90
2015,07,19,06,08,18.90
2015,07,19,06,09,18.90
2015,07,19,06,10,18.90
2015,07,19,06,11,18.90
2015,07,19,06,12,19.00
2015,07,19,06,13,19.00
2015,07,19,06,14,19.00
2015,07,19,06,15,19.00
2015,07,19,06,16,19.00
2015,07,19,06,17,19.00
2015,07,19,06,18,19.00
2015,07,19,06,19,19.10
2015,07,19,06,20,19.10
2015,07,19,06,21,19.10
2015,07,19,06,22,19.10
2015,07,19,06,23,19.10
2015,07,19,06,24,19.10
2015,07,19,06,25,19.10
2015,07,19,06,26,19.10
2015,07,19,06,27,19.10
2015,07,19,06,28,19.10
2015,07,19,06,29,19.20
2015,07,19,06,30,19.20
2015,07,19,06,31,19.20
2015,07,19,06,32,19.20
2015,07,19,06,33,19.20
2015,07,19,06,34,19.20
2015,07,19,06,35,19.30
2015,07,19,06,36,19.30
2015,07,19,06,37,19.30
2015,07,19,06,38,19.30
2015,07,19,06,39,19.30
2015,07,19,06,40,19.30
2015,07,19,06,41,19.30
2015,07,19,06,42,19.40
2015,07,19,06,43,19.40
2015,07,19,06,44,19.40
2015,07,19,06,45,19.40
2015,07,19,06,46,19.50
2015,07,19,06,47,19.50
2015,07,19,06,48,19.50
2015,07,19,06,49,19.60
2015,07,19,06,50,19.60
2015,07,19,06,51,19.70
2015,07,19,06,52,19.70
2015,07,19,06,53,19.70
2015,07,19,06,54,19.70
2015,07,19,06,55,19.80
2015,07,19,06,56,19.80
2015,07,19,06,57,19.80
2015,07,19,06,58,19.90
2015,07,19,06,59,19.90
2015,07,19,07,00,19.90
2015,07,19,07,01,19.90
2015,07,19,07,02,20.00
2015,07,19,07,03,20.00
2015,07,19,07,04,20.00
2015,07,19,07,05,20.10
2015,07,19,07,06,20.10
2015,07,19,07,07,20.10
2015,07,19,07,08,20.20
2015,07,19,07,09,20.20
2015,07,19,07,10,20.30
2015,07,19,07,11,20.40
2015,07,19,07,12,20.40
2015,07,19,07,13,20.50
2015,07,19,07,14,20.60
2015,07,19,07,15,20.70
2015,07,19,07,16,20.80
2015,07,19,07,17,20.80
2015,07,19,07,18,20.90
2015,07,19,07,19,20.90
2015,07,19,07,20,20.90
2015,07,19,07,21,21.00
2015,07,19,07,22,21.00
2015,07,19,07,23,21.00
2015,07,19,07,24,21.10
2015,07,19,07,25,21.10
2015,07,19,07,26,21.10
2015,07,19,07,27,21.10
2015,07,19,07,28,21.20
2015,07,19,07,29,21.20
2015,07,19,07,30,21.20
2015,07,19,07,31,21.30
2015,07,19,07,32,21.30
2015,07,19,07,33,21.30
2015,07,19,07,34,21.30
2015,07,19,07,35,21.30
2015,07,19,07,36,21.30
2015,07,19,07,37,21.30
2015,07,19,07,38,21.20
2015,07,19,07,39,21.20
2015,07,19,07,40,21.20
2015,07,19,07,41,21.10
2015,07,19,07,42,21.10
2015,07,19,07,43,21.10
2015,07,19,07,44,21.00
2015,07,19,07,45,21.00
2015,07,19,07,46,21.00
2015,07,19,07,47,21.00
2015,07,19,07,48,21.00
2015,07,19,07,49,21.00
2015,07,19,07,50,21.00
2015,07,19,07,51,21.10
2015,07,19,07,52,21.20
2015,07,19,07,53,21.20
2015,07,19,07,54,21.30
2015,07,19,07,55,21.30
2015,07,19,07,56,21.30
2015,07,19,07,57,21.40
2015,07,19,07,58,21.40
2015,07,19,07,59,21.40
2015,07,19,08,00,21.50
2015,07,19,08,01,21.50
2015,07,19,08,02,21.60
2015,07,19,08,03,21.60
2015,07,19,08,04,21.60
2015,07,19,08,05,21.60
2015,07,19,08,06,21.60
2015,07,19,08,07,21.60
2015,07,19,08,08,21.60
2015,07,19,08,09,21.50
2015,07,19,08,10,21.50
2015,07,19,08,11,21.50
2015,07,19,08,12,21.50
2015,07,19,08,13,21.50
2015,07,19,08,14,21.60
2015,07,19,08,15,21.60
2015,07,19,08,16,21.70
2015,07,19,08,17,21.70
2015,07,19,08,18,21.80
2015,07,19,08,19,21.80
2015,07,19,08,20,21.90
2015,07,19,08,21,21.90
2015,07,19,08,22,22.00
2015,07,19,08,23,22.00
2015,07,19,08,24,22.10
2015,07,19,08,25,22.10
2015,07,19,08,26,22.10
2015,07,19,08,27,22.10
2015,07,19,08,28,22.10
2015,07,19,08,29,22.10
2015,07,19,08,30,22.10
2015,07,19,08,31,22.10
2015,07,19,08,32,22.10
2015,07,19,08,33,22.10
2015,07,19,08,34,22.10
2015,07,19,08,35,22.10
2015,07,19,08,36,22.20
2015,07,19,08,37,22.20
2015,07,19,08,38,22.30
2015,07,19,08,39,22.30
2015,07,19,08,40,22.40
2015,07,19,08,41,22.50
2015,07,19,08,42,22.50
2015,07,19,08,43,22.60
2015,07,19,08,44,22.70
2015,07,19,08,45,22.70
2015,07,19,08,46,22.80
2015,07,19,08,47,22.80
2015,07,19,08,48,22.70
2015,07,19,08,49,22.70
2015,07,19,08,50,22.60
2015,07,19,08,51,22.60
2015,07,19,08,52,22.50
2015,07,19,08,53,22.40
2015,07,19,08,54,22.30
2015,07,19,08,55,22.30
2015,07,19,08,56,22.30
2015,07,19,08,57,22.30
2015,07,19,08,58,22.30
2015,07,19,08,59,22.30
2015,07,19,09,00,22.30
2015,07,19,09,01,22.30
2015,07,19,09,02,22.30
2015,07,19,09,03,22.40
2015,07,19,09,04,22.50
2015,07,19,09,05,22.50
2015,07,19,09,06,22.60
2015,07,19,09,07,22.60
2015,07,19,09,08,22.70
2015,07,19,09,09,22.60
2015,07,19,09,10,22.60
2015,07,19,09,11,22.60
2015,07,19,09,12,22.60
2015,07,19,09,13,22.60
2015,07,19,09,14,22.60
2015,07,19,09,15,22.60
2015,07,19,09,16,22.60
2015,07,19,09,17,22.70
2015,07,19,09,18,22.70
2015,07,19,09,19,22.80
2015,07,19,09,20,22.80
2015,07,19,09,21,22.90
2015,07,19,09,22,22.90
2015,07,19,09,23,23.00
2015,07,19,09,24,23.10
2015,07,19,09,25,23.10
2015,07,19,09,26,23.20
2015,07,19,09,27,23.20
2015,07,19,09,28,23.20
2015,07,19,09,29,23.20
2015,07,19,09,30,23.30
2015,07,19,09,31,23.30
2015,07,19,09,32,23.40
2015,07,19,09,33,23.40
2015,07,19,09,34,23.40
2015,07,19,09,35,23.40
2015,07,19,09,36,23.40
2015,07,19,09,37,23.50
2015,07,19,09,38,23.50
2015,07,19,09,39,23.60
2015,07,19,09,40,23.60
2015,07,19,09,41,23.60
2015,07,19,09,42,23.60
2015,07,19,09,43,23.70
2015,07,19,09,44,23.70
2015,07,19,09,45,23.70
2015,07,19,09,46,23.80
2015,07,19,09,47,23.80
2015,07,19,09,48,23.90
2015,07,19,09,49,23.90
2015,07,19,09,50,24.00
2015,07,19,09,51,24.10
2015,07,19,09,52,24.20
2015,07,19,09,53,24.20
2015,07,19,09,54,24.20
2015,07,19,09,55,24.20
2015,07,19,09,56,24.30
2015,07,19,09,57,24.30
2015,07,19,09,58,24.40
2015,07,19,09,59,24.40
2015,07,19,10,00,24.40
2015,07,19,10,01,24.50
2015,07,19,10,02,24.40
2015,07,19,10,03,24.50
2015,07,19,10,04,24.60
2015,07,19,10,05,24.60
2015,07,19,10,06,24.60
2015,07,19,10,07,24.50
2015,07,19,10,08,24.40
2015,07,19,10,09,24.40
2015,07,19,10,10,24.40
2015,07,19,10,11,24.40
2015,07,19,10,12,24.30
2015,07,19,10,13,24.30
2015,07,19,10,14,24.30
2015,07,19,10,15,24.20
2015,07,19,10,16,24.20
2015,07,19,10,17,24.10
2015,07,19,10,18,24.10
2015,07,19,10,19,24.10
2015,07,19,10,20,24.20
2015,07,19,10,21,24.20
2015,07,19,10,22,24.20
2015,07,19,10,23,24.30
2015,07,19,10,24,24.30
2015,07,19,10,25,24.30
2015,07,19,10,26,24.30
2015,07,19,10,27,24.20
2015,07,19,10,28,24.20
2015,07,19,10,29,24.10
2015,07,19,10,30,24.10
2015,07,19,10,31,24.10
2015,07,19,10,32,24.10
2015,07,19,10,33,24.10
2015,07,19,10,34,24.20
2015,07,19,10,35,24.20
2015,07,19,10,36,24.30
2015,07,19,10,37,24.30
2015,07,19,10,38,24.30
2015,07,19,10,39,24.30
2015,07,19,10,40,24.30
2015,07,19,10,41,24.20
2015,07,19,10,42,24.20
2015,07,19,10,43,24.20
2015,07,19,10,44,24.20
2015,07,19,10,45,24.20
2015,07,19,10,46,24.20
2015,07,19,10,47,24.20
2015,07,19,10,48,24.20
2015,07,19,10,49,24.30
2015,07,19,10,50,24.30
2015,07,19,10,51,24.40
2015,07,19,10,52,24.50
2015,07,19,10,53,24.60
2015,07,19,10,54,24.60
2015,07,19,10,55,24.70
2015,07,19,10,56,24.70
2015,07,19,10,57,24.80
2015,07,19,10,58,24.80
2015,07,19,10,59,24.80
2015,07,19,11,00,24.90
2015,07,19,11,01,24.90
2015,07,19,11,02,24.90
2015,07,19,11,03,24.90
2015,07,19,11,04,24.90
2015,07,19,11,05,25.00
2015,07,19,11,06,24.90
2015,07,19,11,07,24.90
2015,07,19,11,08,24.90
2015,07,19,11,09,25.00
2015,07,19,11,10,25.10
2015,07,19,11,11,25.10
2015,07,19,11,12,25.20
2015,07,19,11,13,25.30
2015,07,19,11,14,25.30
2015,07,19,11,15,25.40
2015,07,19,11,16,25.50
2015,07,19,11,17,25.50
2015,07,19,11,18,25.60
2015,07,19,11,19,25.70
2015,07,19,11,20,25.70
2015,07,19,11,21,25.70
2015,07,19,11,22,25.80
2015,07,19,11,23,25.80
2015,07,19,11,24,25.90
2015,07,19,11,25,25.90
2015,07,19,11,26,26.00
2015,07,19,11,27,26.10
2015,07,19,11,28,26.10
2015,07,19,11,29,26.10
2015,07,19,11,30,26.00
2015,07,19,11,31,26.00
2015,07,19,11,32,25.90
2015,07,19,11,33,25.80
2015,07,19,11,34,25.80
2015,07,19,11,35,25.80
2015,07,19,11,36,25.80
2015,07,19,11,37,25.80
2015,07,19,11,38,25.80
2015,07,19,11,39,25.90
2015,07,19,11,40,25.90
2015,07,19,11,41,26.00
2015,07,19,11,42,26.00
2015,07,19,11,43,26.00
2015,07,19,11,44,26.10
2015,07,19,11,45,26.10
2015,07,19,11,46,26.20
2015,07,19,11,47,26.20
2015,07,19,11,48,26.20
2015,07,19,11,49,26.10
2015,07,19,11,50,26.10
2015,07,19,11,51,26.00
2015,07,19,11,52,26.00
2015,07,19,11,53,26.00
2015,07,19,11,54,26.00
2015,07,19,11,55,26.10
2015,07,19,11,56,26.20
2015,07,19,11,57,26.20
2015,07,19,11,58,26.30
2015,07,19,11,59,26.40
2015,07,19,12,00,26.50
2015,07,19,12,01,26.50
2015,07,19,12,02,26.60
2015,07,19,12,03,26.70
2015,07,19,12,04,26.80
2015,07,19,12,05,26.90
2015,07,19,12,06,26.90
2015,07,19,12,07,27.00
2015,07,19,12,08,27.00
2015,07,19,12,09,27.00
2015,07,19,12,10,27.00
2015,07,19,12,11,26.90
2015,07,19,12,12,26.90
2015,07,19,12,13,26.80
2015,07,19,12,14,26.80
2015,07,19,12,15,26.80
2015,07,19,12,16,26.80
2015,07,19,12,17,26.80
2015,07,19,12,18,26.80
2015,07,19,12,19,26.80
2015,07,19,12,20,26.80
2015,07,19,12,21,26.90
2015,07,19,12,22,26.90
2015,07,19,12,23,27.00
2015,07,19,12,24,27.00
2015,07,19,12,25,26.90
2015,07,19,12,26,26.90
2015,07,19,12,27,26.80
2015,07,19,12,28,26.80
2015,07,19,12,29,26.80
2015,07,19,12,30,26.80
2015,07,19,12,31,26.70
2015,07,19,12,32,26.70
2015,07,19,12,33,26.70
2015,07,19,12,34,26.80
2015,07,19,12,35,26.80
2015,07,19,12,36,26.90
2015,07,19,12,37,26.90
2015,07,19,12,38,26.90
2015,07,19,12,39,27.00
2015,07,19,12,40,27.10
2015,07,19,12,41,27.00
2015,07,19,12,42,27.00
2015,07,19,12,43,27.00
2015,07,19,12,44,26.90
2015,07,19,12,45,26.90
2015,07,19,12,46,26.90
2015,07,19,12,47,27.00
2015,07,19,12,48,27.00
2015,07,19,12,49,27.10
2015,07,19,12,50,27.10
2015,07,19,12,51,27.10
2015,07,19,12,52,27.10
2015,07,19,12,53,27.10
2015,07,19,12,54,27.20
2015,07,19,12,55,27.20
2015,07,19,12,56,27.20
2015,07,19,12,57,27.30
2015,07,19,12,58,27.30
2015,07,19,12,59,27.40
2015,07,19,13,00,27.50
2015,07,19,13,01,27.60
2015,07,19,13,02,27.80
2015,07,19,13,03,27.90
2015,07,19,13,04,28.00
2015,07,19,13,05,28.10
2015,07,19,13,06,28.10
2015,07,19,13,07,28.10
2015,07,19,13,08,28.20
2015,07,19,13,09,28.20
2015,07,19,13,10,28.20
2015,07,19,13,11,28.30
2015,07,19,13,12,28.40
2015,07,19,13,13,28.40
2015,07,19,13,14,28.50
2015,07,19,13,15,28.50
2015,07,19,13,16,28.40
2015,07,19,13,17,28.30
2015,07,19,13,18,28.20
2015,07,19,13,19,28.20
2015,07,19,13,20,28.10
2015,07,19,13,21,28.10
2015,07,19,13,22,28.10
2015,07,19,13,23,28.10
2015,07,19,13,24,28.10
2015,07,19,13,25,28.10
2015,07,19,13,26,28.00
2015,07,19,13,27,27.90
2015,07,19,13,28,27.80
2015,07,19,13,29,27.80
2015,07,19,13,30,27.90
2015,07,19,13,31,27.90
2015,07,19,13,32,28.00
2015,07,19,13,33,28.10
2015,07,19,13,34,28.20
2015,07,19,13,35,28.10
2015,07,19,13,36,28.10
2015,07,19,13,37,28.10
2015,07,19,13,38,28.20
2015,07,19,13,39,28.20
2015,07,19,13,40,28.40
2015,07,19,13,41,28.60
2015,07,19,13,42,28.70
2015,07,19,13,43,28.70
2015,07,19,13,44,28.70
2015,07,19,13,45,28.60
2015,07,19,13,46,28.60
2015,07,19,13,47,28.60
2015,07,19,13,48,28.60
2015,07,19,13,49,28.60
2015,07,19,13,50,28.60
2015,07,19,13,51,28.70
2015,07,19,13,52,28.70
2015,07,19,13,53,28.60
2015,07,19,13,54,28.60
2015,07,19,13,55,28.60
2015,07,19,13,56,28.60
2015,07,19,13,57,28.60
2015,07,19,13,58,28.70
2015,07,19,13,59,28.70
2015,07,19,14,00,28.70
2015,07,19,14,01,28.70
2015,07,19,14,02,28.70
2015,07,19,14,03,28.70
2015,07,19,14,04,28.80
2015,07,19,14,05,28.90
2015,07,19,14,06,29.00
2015,07,19,14,07,29.20
2015,07,19,14,08,29.30
2015,07,19,14,09,29.40
2015,07,19,14,10,29.60
2015,07,19,14,11,29.70
2015,07,19,14,12,29.80
2015,07,19,14,13,29.80
2015,07,19,14,14,29.90
2015,07,19,14,15,30.00
2015,07,19,14,16,30.00
2015,07,19,14,17,30.10
2015,07,19,14,18,30.00
2015,07,19,14,19,30.00
2015,07,19,14,20,29.90
2015,07,19,14,21,29.90
2015,07,19,14,22,29.90
2015,07,19,14,23,30.00
2015,07,19,14,24,30.00
2015,07,19,14,25,30.10
2015,07,19,14,26,30.10
2015,07,19,14,27,30.10
2015,07,19,14,28,30.10
2015,07,19,14,29,30.10
2015,07,19,14,30,30.00
2015,07,19,14,31,30.00
2015,07,19,14,32,29.90
2015,07,19,14,33,29.90
2015,07,19,14,34,29.80
2015,07,19,14,35,29.80
2015,07,19,14,36,29.80
2015,07,19,14,37,29.70
2015,07,19,14,38,29.60
2015,07,19,14,39,29.60
2015,07,19,14,40,29.60
2015,07,19,14,41,29.70
2015,07,19,14,42,29.70
2015,07,19,14,43,29.80
2015,07,19,14,44,29.80
2015,07,19,14,45,29.80
2015,07,19,14,46,29.90
2015,07,19,14,47,30.00
2015,07,19,14,48,30.10
2015,07,19,14,49,30.10
2015,07,19,14,50,30.10
2015,07,19,14,51,30.10
2015,07,19,14,52,30.20
2015,07,19,14,53,30.30
2015,07,19,14,54,30.30
2015,07,19,14,55,30.50
2015,07,19,14,56,30.60
2015,07,19,14,57,30.70
2015,07,19,14,58,30.80
2015,07,19,14,59,30.80
2015,07,19,15,00,30.90
2015,07,19,15,01,31.00
2015,07,19,15,02,31.00
2015,07,19,15,03,31.00
2015,07,19,15,04,31.00
2015,07,19,15,05,31.00
2015,07,19,15,06,31.10
2015,07,19,15,07,31.10
2015,07,19,15,08,31.10
2015,07,19,15,09,31.10
2015,07,19,15,10,31.10
2015,07,19,15,11,31.10
2015,07,19,15,12,31.10
2015,07,19,15,13,31.20
2015,07,19,15,14,31.20
2015,07,19,15,15,31.20
2015,07,19,15,16,31.10
2015,07,19,15,17,31.10
2015,07,19,15,18,31.10
2015,07,19,15,19,31.10
2015,07,19,15,20,31.20
2015,07,19,15,21,31.30
2015,07,19,15,22,31.30
2015,07,19,15,23,31.20
2015,07,19,15,24,31.20
2015,07,19,15,25,31.20
2015,07,19,15,26,31.10
2015,07,19,15,27,31.00
2015,07,19,15,28,31.00
2015,07,19,15,29,30.90
2015,07,19,15,30,30.90
2015,07,19,15,31,30.90
2015,07,19,15,32,30.90
2015,07,19,15,33,30.90
2015,07,19,15,34,30.90
2015,07,19,15,35,30.90
2015,07,19,15,36,31.00
2015,07,19,15,37,31.00
2015,07,19,15,38,31.10
2015,07,19,15,39,31.20
2015,07,19,15,40,31.20
2015,07,19,15,41,31.20
2015,07,19,15,42,31.20
2015,07,19,15,43,31.20
2015,07,19,15,44,31.20
2015,07,19,15,45,31.10
2015,07,19,15,46,31.10
2015,07,19,15,47,31.20
2015,07,19,15,48,31.20
2015,07,19,15,49,31.20
2015,07,19,15,50,31.20
2015,07,19,15,51,31.20
2015,07,19,15,52,31.30
2015,07,19,15,53,31.30
2015,07,19,15,54,31.20
2015,07,19,15,55,31.10
2015,07,19,15,56,31.00
2015,07,19,15,57,30.90
2015,07,19,15,58,30.90
2015,07,19,15,59,30.90
2015,07,19,16,00,30.90
2015,07,19,16,01,30.90
2015,07,19,16,02,30.90
2015,07,19,16,03,30.90
2015,07,19,16,04,31.00
2015,07,19,16,05,31.10
2015,07,19,16,06,31.10
2015,07,19,16,07,31.10
2015,07,19,16,08,31.10
2015,07,19,16,09,31.10
2015,07,19,16,10,31.20
2015,07,19,16,11,31.20
2015,07,19,16,12,31.20
2015,07,19,16,13,31.20
2015,07,19,16,14,31.10
2015,07,19,16,15,31.10
2015,07,19,16,16,31.10
2015,07,19,16,17,31.10
2015,07,19,16,18,31.10
2015,07,19,16,19,31.10
2015,07,19,16,20,31.00
2015,07,19,16,21,30.90
2015,07,19,16,22,30.80
2015,07,19,16,23,30.80
2015,07,19,16,24,30.80
2015,07,19,16,25,30.80
2015,07,19,16,26,30.70
2015,07,19,16,27,30.60
2015,07,19,16,28,30.60
2015,07,19,16,29,30.60
2015,07,19,16,30,30.60
2015,07,19,16,31,30.70
2015,07,19,16,32,30.80
2015,07,19,16,33,30.80
2015,07,19,16,34,30.80
2015,07,19,16,35,30.80
2015,07,19,16,36,30.70
2015,07,19,16,37,30.70
2015,07,19,16,38,30.70
2015,07,19,16,39,30.70
2015,07,19,16,40,30.60
2015,07,19,16,41,30.60
2015,07,19,16,42,30.60
2015,07,19,16,43,30.60
2015,07,19,16,44,30.60
2015,07,19,16,45,30.60
2015,07,19,16,46,30.70
2015,07,19,16,47,30.80
2015,07,19,16,48,30.90
2015,07,19,16,49,30.90
2015,07,19,16,50,30.90
2015,07,19,16,51,30.90
2015,07,19,16,52,30.90
2015,07,19,16,53,30.90
2015,07,19,16,54,30.80
2015,07,19,16,55,30.70
2015,07,19,16,56,30.60
2015,07,19,16,57,30.40
2015,07,19,16,58,30.20
2015,07,19,16,59,30.10
2015,07,19,17,00,30.10
2015,07,19,17,01,30.10
2015,07,19,17,02,30.20
2015,07,19,17,03,30.20
2015,07,19,17,04,30.30
2015,07,19,17,05,30.30
2015,07,19,17,06,30.30
2015,07,19,17,07,30.30
2015,07,19,17,08,30.20
2015,07,19,17,09,30.20
2015,07,19,17,10,30.10
2015,07,19,17,11,30.10
2015,07,19,17,12,30.00
2015,07,19,17,13,29.90
2015,07,19,17,14,29.80
2015,07,19,17,15,29.70
2015,07,19,17,16,29.60
2015,07,19,17,17,29.50
2015,07,19,17,18,29.30
2015,07,19,17,19,29.20